Powrót do katalogu

THORAD DELTA 1 DEB

AktywnySSO
NORAD 8396·DEBRIS·🇺🇸 United States

Wystrzelony Nov 15, 1974 z Vandenberg Space Force Base

Loading…

Następne Przeloty (najbliższe 24 godziny)

TLE

ŚwieżeSource: Space-Track

Epoka: Sep 13, 2026, 03:22 UTC

1 08396U 74089BY  26256.14088006 -.00000065  00000-0 -13297-3 0  9990
2 08396 102.1153 332.0216 0063351 278.8006 110.4736 12.42766856353681

Śledź THORAD DELTA 1 DEB w czasie rzeczywistym z AllMySat

Download on the App Store